Location: Catenanuova
(37.5690°N, 14.6870°E)
Time: 19:45:02
(UTC+02:00)

Envisat - Visible Passes

Search period start: 12 June 2025 00:00
Search period end: 22 June 2025 00:00
Orbit: 761 x 763 km, 98.3° (Epoch: 11 June)

Date Brightness Start Highest point End Pass type
(mag) Time Alt. Az. Time Alt. Az. Time Alt. Az.
12 Jun 3.4 03:35:44 10° NNE 03:40:44 59° E 03:43:57 22° S visible
13 Jun 4.8 02:58:46 10° NE 03:02:53 24° E 03:05:48 15° SE visible
13 Jun 3.8 04:37:17 10° N 04:41:50 34° WNW 04:45:57 12° SW visible
14 Jun 2.9 03:59:14 10° N 04:04:18 81° WNW 04:07:48 20° SSW visible
15 Jun 3.9 03:21:47 10° NNE 03:26:35 42° E 03:29:40 20° SSE visible
15 Jun 4.5 05:01:29 10° NNW 05:05:11 21° WNW 05:08:54 10° WSW visible
16 Jun 5.2 02:45:16 10° NE 02:48:39 18° E 02:51:31 12° SE visible
16 Jun 3.4 04:22:57 10° N 04:27:48 47° WNW 04:31:39 16° SW visible
17 Jun 3.1 03:45:08 10° NNE 03:50:12 74° ESE 03:53:31 22° S visible
18 Jun 4.4 03:07:56 10° NE 03:12:24 30° E 03:15:22 18° SSE visible
18 Jun 4.1 04:46:57 10° N 04:51:13 28° WNW 04:55:28 10° SW visible
19 Jun 5.4 02:32:13 10° ENE 02:34:24 13° E 02:36:35 10° ESE visible
19 Jun 3.0 04:08:44 10° N 04:13:45 65° WNW 04:17:22 19° SSW visible
20 Jun 3.5 03:31:07 10° NNE 03:36:05 53° E 03:39:12 22° S visible
21 Jun 4.9 02:54:16 10° NE 02:58:12 22° E 03:01:03 14° SE visible
21 Jun 3.7 04:32:33 10° N 04:37:12 38° WNW 04:41:12 13° SW visible
